Location: Arthez
(43.0833°N, 0.2500°W)
Time: 03:05:09
(UTC+00:00)

SMAP - Pass Details

Date: 23 October 2021
Orbit: 681 x 683 km, 98.1° (Epoch: 27 November)

Event Time Altitude Azimuth Distance (km) Brightness Sun altitude
Rises 17:22:12 0° 165° (SSE) 3,032 6.4 -3.8°
Reaches altitude 10° 17:24:25 10° 165° (SSE) 2,121 5.6 -4.2°
Maximum altitude 17:29:04 90° 96° (E) 690 3.1 -5.0°
Drops below altitude 10° 17:33:46 10° 347° (NNW) 2,137 5.7 -5.9°
Sets 17:36:01 0° 347° (NNW) 3,057 6.5 -6.3°
